DMSP 5D-2 F11 DEB, 28322

Orbit data source: Space-Track

DMSP 5D-2 F11 DEB, 28322 is space debris in SSO originally from a launch on Thu, 28 Nov 1991 UTC launched from the Air Force Western Test Range (AFWTR). Debris objects in space refer to the collection of defunct objects orbiting the Earth. Examples of debris include non-operational satellites, rocket bodies, and fragments generated from explosions, collisions, or faulty payload assembly.

Loading next visibility...
Identifier
28322, 1991-082AK
Orbit
SSO
Country
Flag of USUS
Related business
Manufacturer
Unknown
Mission
Spacecraft
Bus & Motor
Unknown
Mass
Unknown
Launch date (UTC)
1991-11-28 (34 years ago)
Launch vehicle
Unknown
Launch site
Air Force Western Test Range (AFWTR)
Object type
Payload
Rocket body
Debris
Shape & HBR
Unknown shape, 0.1 m
Radar Cross Section
Small (<0.1 m²)

Expand to show TLE details & history
Last TLE update: 14 hours ago

TLE from 14 hours ago
0 DMSP 5D-2 F11 DEB
1 28322U 91082AK  26120.95871615  .00000476  00000-0  33918-3 0  9994
2 28322  98.5650 122.6507 0111859 358.7350  29.9894 13.98951775120617
Epoch: 2026-04-30T23:00Z
TLE epoch observation values (Epoch: 2026-04-30T23:00:33.075Z)
Latitude
29.06193°
Longitude
-86.1606°
Altitude
830.739 km
Speed
7.476 km/s
True Right ascension
07h 51m 30s
True Declination
28° 55' 03"
Sunlit
Object was in daylight at epoch
Visualization orbit readout
Latitude
Unknown
Longitude
Unknown
Altitude
Unknown
Speed
Unknown
Apparent Right ascension
Unknown
Apparent Declination
Unknown
Sunlit
N/A
Visualization observer readout
Local Sidereal Time
20:52:10
Azimuth
Unknown
Elevation
Unknown
Doppler factor
Unknown
Orbital elements
Apogee altitude
975.959 km
Perigee altitude
813.255 km
Semi-major axis
7,272.744 km
Eccentricity
0.01119
Inclination
98.565°
RAAN
122.6507°
Arg. of periapsis
358.735°
True anomaly
30.63794°
Mean anomaly
29.9894°
Eccentric anomaly
30.31288°
Mean motion
3.49942 °/min
Orbital period
102.87 mins
BSTAR
0.00033918
Loading maneuver chart data...
Computing Atmospheric mass density...
Loading historical data...
Loading historical data...
Loading historical data...
Loading historical data...
Loading historical data...
Loading historical data...
Loading historical data...

Documentation

Showing up to 5 results
|